Location: Orange
(33.2833°S, 149.1000°E)
Time: 12:09:06
(UTC+11:00)

Envisat - Pass Details

Date: 13 December 2021
Orbit: 764 x 766 km, 98.2° (Epoch: 22 January)

Event Time Altitude Azimuth Distance (km) Brightness Sun altitude
Rises 04:38:04 0° 35° (NE) 3,218 6.2 -12.9°
Reaches altitude 10° 04:40:30 10° 43° (NE) 2,300 5.5 -12.5°
Maximum altitude 04:45:08 37° 108° (ESE) 1,194 4.7 -11.8°
Drops below altitude 10° 04:49:48 10° 174° (S) 2,327 6.2 -11.0°
Sets 04:52:16 0° 182° (S) 3,261 6.8 -10.6°
